Location: Asheville, NC
(35.6000°N, 82.5500°W)
Time: 23:45:43
(UTC-04:00)

Iridium 28 - Pass Details

Date: 08 January 2018
Orbit: 771 x 775 km, 86.4° (Epoch: 17 June)

Event Time Altitude Azimuth Distance (km) Brightness Sun altitude
Rises 06:22:19 0° 170° (S) 3,231 9.1 -15.5°
Reaches altitude 10° 06:24:41 10° 166° (SSE) 2,308 8.4 -15.1°
Maximum altitude 06:29:44 57° 88° (E) 909 6.2 -14.1°
Drops below altitude 10° 06:34:49 10° 11° (N) 2,325 7.9 -13.1°
Sets 06:37:12 0° 7° (N) 3,256 8.6 -12.7°
